Lapse_Rate
3.9 3.1 2.6 2.1 1.5 1.8 2.0 1.8 1.4 1.1 0.2 -0.9 -2.0 -2.0 -0.9 0.3 0.9 1.2 -0.2 -1.3 0.1 0.4 3.6 3.7 3.8 2.0 3.1 2.6 6.5 4.3 5.2 3.1 4.9 6.5 6.5 6.5 6.5 6.5 6.5 6.5 6.5 6.5 6.5 6.5 6.5 6.5 6.5 5.2 6.3 6.5 5.4 3.2 1.5 1.3
3.4 2.8 2.1 1.7 1.7 2.0 1.8 1.5 1.1 0.5 -1.2 -1.7 -1.8 -1.7 -1.5 -0.2 0.6 1.4 1.3 -1.0 -2.0 -0.3 3.3 2.7 3.4 2.6 2.3 2.3 0.6 2.1 3.8 3.9 2.8 6.5 6.5 6.5 6.5 6.5 6.5 6.5 6.5 6.5 6.5 6.5 6.5 6.5 5.4 4.0 4.8 3.1 2.6 2.9 1.9 0.7
2.8 2.1 1.6 2.0 2.3 1.9 1.6 1.0 -0.0 -0.7 -1.2 -1.6 -1.7 -2.0 -1.8 -1.1 0.4 0.3 -0.4 -2.3 -2.0 -0.1 3.2 3.1 4.2 3.3 1.7 0.8 0.8 1.9 0.4 2.0 1.8 0.3 4.1 6.4 6.5 6.5 6.5 6.5 6.5 6.5 5.6 6.5 6.5 6.4 5.7 3.2 2.4 2.5 3.0 2.2 2.7 1.6
2.5 2.2 2.5 2.3 2.0 1.7 1.1 0.0 -0.6 -1.1 -1.2 -1.6 -1.5 -1.5 -1.2 -0.6 -0.3 -0.8 -1.5 -3.1 -2.7 -2.8 1.0 3.7 2.6 3.5 2.4 1.7 2.6 1.4 -1.0 -1.5 -1.7 -1.0 2.4 6.5 6.5 5.1 6.5 6.5 6.5 5.9 6.1 6.5 6.5 5.8 4.0 2.6 1.7 1.5 1.7 1.6 1.6 1.4
2.5 2.3 2.3 2.1 1.8 1.1 0.5 -0.2 -0.7 -0.9 -1.0 -1.6 -2.0 -1.3 -0.2 -0.5 -0.1 -0.7 -2.6 -3.2 -3.0 0.3 3.2 1.2 2.8 2.7 1.6 1.8 0.8 0.2 -0.1 -0.3 0.1 0.9 5.7 6.5 2.8 5.8 5.6 6.4 6.5 5.0 6.5 6.5 6.5 3.2 4.8 3.7 3.5 1.5 1.6 1.0 1.2 2.8
2.7 2.6 2.3 2.1 1.2 0.9 0.1 -0.3 -0.4 -0.4 -1.1 -1.3 -1.7 -1.6 0.8 0.6 0.7 -0.1 0.9 -0.9 -2.7 -2.9 -0.8 6.3 2.1 2.8 1.7 1.4 0.8 0.7 1.0 -0.1 0.2 0.4 1.8 1.8 3.6 3.7 6.5 6.5 4.5 3.4 2.5 2.5 4.6 4.0 2.7 3.3 2.0 2.3 2.1 1.9 3.3 3.3
2.8 2.7 2.4 1.6 1.3 1.1 0.2 -0.2 -0.2 -0.2 -0.3 -0.7 -0.8 0.3 0.8 0.4 -1.1 -0.6 0.8 -0.3 -2.7 -2.7 -2.0 5.4 4.8 2.5 1.8 1.7 0.0 1.0 0.8 1.0 1.6 1.6 2.8 3.4 4.0 3.8 6.5 6.5 4.9 3.1 2.6 2.7 2.8 3.5 4.4 2.5 3.3 2.1 2.9 3.2 3.4 3.7
2.9 2.9 2.6 1.8 1.7 1.1 -0.1 0.1 0.2 0.3 0.3 0.3 -0.4 -0.2 -0.2 -0.4 -0.9 0.5 -0.8 -1.5 -2.0 -1.6 -2.3 6.5 6.5 2.7 2.1 1.9 1.9 1.2 0.7 2.0 3.3 4.5 4.3 5.6 5.2 5.3 6.5 6.1 5.0 4.5 3.8 3.6 3.8 3.2 4.1 3.8 2.9 3.0 3.8 4.3 4.6 5.1
2.5 2.8 2.7 2.8 2.6 0.9 0.9 0.6 0.7 0.9 1.2 1.8 1.5 1.4 0.7 -0.2 0.9 2.0 0.0 0.1 -0.8 0.5 1.6 5.2 6.5 6.5 3.3 3.6 2.7 2.8 3.1 6.3 4.1 5.7 5.3 5.2 6.5 6.5 6.5 6.2 5.3 4.2 4.7 4.3 3.5 3.6 3.9 3.8 4.9 5.5 5.3 5.5 4.8 4.1
2.3 2.3 2.4 2.6 2.7 2.5 2.4 1.7 1.5 1.6 2.6 1.9 0.9 0.8 0.4 1.1 0.7 0.7 1.3 0.6 -0.0 0.3 1.6 6.1 5.3 6.5 5.8 3.5 4.9 4.1 3.3 6.5 6.5 6.1 5.2 6.5 6.5 5.9 5.3 5.3 4.5 3.4 3.6 4.8 5.4 5.1 4.3 4.6 5.5 5.0 4.8 4.9 4.7 5.1
2.8 2.4 2.5 2.6 2.7 3.3 2.9 2.4 2.5 3.3 2.9 0.9 0.5 1.7 1.4 1.0 1.2 -0.2 2.9 4.3 5.9 5.8 4.7 4.9 4.8 6.3 4.5 6.3 6.5 4.2 6.5 6.4 6.5 6.4 6.5 6.5 6.5 6.3 5.4 4.1 3.9 3.8 3.5 3.6 3.3 3.8 5.0 4.6 4.6 4.7 4.6 5.3 5.1 4.6
4.7 3.9 3.1 2.5 2.5 2.8 2.9 2.9 3.0 1.3 0.8 1.6 1.0 1.0 0.3 1.2 2.0 6.0 6.5 5.6 6.4 6.5 4.8 5.4 4.9 5.2 4.0 3.0 5.7 5.3 6.5 6.5 6.5 5.5 6.5 6.5 6.5 7.1 6.4 6.0 5.7 5.2 4.8 4.9 4.9 4.9 5.1 5.3 6.0 6.1 5.7 5.0 4.2 2.6
4.6 4.4 4.2 3.7 3.0 2.7 2.4 2.6 2.3 1.9 1.3 1.0 0.8 1.4 3.3 3.6 6.5 6.5 6.5 6.5 6.5 5.6 4.7 4.4 6.0 3.7 4.1 3.7 5.3 6.4 6.5 6.5 5.3 6.5 6.5 6.5 6.9 6.1 5.8 5.9 5.4 5.4 5.2 5.3 5.1 5.2 5.4 5.2 4.4 3.9 3.0 3.1 1.2 3.1
4.7 4.4 4.2 4.1 4.0 3.4 2.8 2.8 3.0 2.4 2.2 2.5 4.3 6.5 6.5 6.5 6.5 6.5 6.5 6.5 5.3 4.9 4.6 4.0 5.3 5.3 4.5 6.0 6.4 6.5 6.5 6.4 6.5 6.5 6.5 6.5 6.7 6.1 6.2 5.1 4.9 5.1 4.1 4.6 4.7 5.0 4.3 3.1 2.8 1.6 1.3 0.8 0.7 2.2
4.7 4.4 4.3 3.7 3.9 3.7 3.3 3.0 3.6 2.1 2.9 4.7 5.3 6.5 6.5 6.2 6.0 5.6 5.1 5.3 4.8 4.5 4.2 4.8 5.4 5.5 6.4 6.5 6.5 6.5 6.5 6.5 6.5 6.5 6.5 6.3 5.5 5.7 5.8 5.8 5.2 5.3 3.5 3.5 4.6 3.8 1.4 0.9 1.5 2.8 2.3 2.2 2.9 -0.1
4.7 3.9 2.9 3.7 3.6 3.4 2.8 2.4 1.2 1.0 3.4 5.9 5.7 6.4 6.2 6.4 6.5 6.3 5.8 5.9 4.8 4.4 4.2 4.9 6.4 6.5 6.5 6.5 6.5 6.5 6.5 6.5 6.5 6.5 5.6 5.1 5.1 5.0 4.8 4.5 4.7 5.0 4.9 4.9 4.9 4.8 4.2 2.0 1.4 4.0 2.5 1.7 0.1 -0.4
3.9 3.7 3.2 3.5 3.2 3.6 2.4 0.8 0.1 2.5 4.4 5.8 6.3 5.3 5.8 5.9 6.2 5.8 5.2 5.3 4.6 5.1 6.5 6.1 6.5 6.5 6.3 6.5 6.5 6.5 6.5 6.5 6.3 5.5 4.8 4.9 4.8 4.6 4.4 4.5 3.6 4.4 5.0 5.0 4.9 4.9 4.8 3.7 1.4 2.3 3.6 4.2 3.5 3.3
2.6 2.6 3.3 3.0 2.5 1.6 0.4 0.5 2.5 5.0 6.2 5.5 6.3 5.5 5.0 4.7 5.4 5.1 4.5 3.6 4.1 4.9 4.9 6.1 5.8 6.5 6.5 6.5 6.5 6.2 5.4 3.3 3.3 3.7 4.2 5.4 5.5 4.6 4.9 5.0 5.0 5.0 4.7 4.4 3.3 3.8 3.3 2.5 3.0 3.1 3.3 3.2 2.8 2.9
3.2 3.2 2.9 2.4 1.5 -0.1 2.0 2.8 3.3 6.3 5.9 5.4 5.0 4.4 4.6 4.4 3.9 3.7 3.8 3.1 1.1 0.9 2.2 2.1 6.5 6.5 6.5 3.6 2.7 3.0 4.7 3.8 3.3 4.0 3.9 3.9 4.0 4.1 3.8 3.8 3.7 3.4 3.4 3.2 2.8 2.6 2.5 3.0 3.0 3.2 3.2 3.3 3.6 4.7
3.3 3.1 2.5 2.2 2.1 0.8 3.9 2.9 2.6 4.5 6.3 5.8 5.0 5.0 4.9 4.9 4.3 4.4 4.2 2.7 2.0 1.3 2.7 6.0 5.6 2.6 2.3 1.8 1.2 1.2 1.1 1.0 1.7 1.7 2.2 2.5 1.9 2.5 2.2 2.4 2.4 2.8 2.5 2.8 3.0 2.4 2.1 2.4 2.6 3.2 3.3 3.9 4.5 4.7
2.1 2.2 1.9 1.6 0.3 1.7 2.9 3.1 5.4 5.2 5.6 5.7 5.2 5.4 5.4 5.2 5.5 5.3 5.3 3.3 2.7 1.6 3.6 2.6 0.8 1.0 1.5 0.7 0.4 0.3 1.7 2.7 2.3 1.1 1.7 2.6 2.6 2.3 2.2 1.8 1.5 1.4 1.2 0.5 0.2 2.1 2.4 3.3 3.6 2.8 1.5 1.8 2.3 2.9
2.0 2.0 0.5 0.9 1.1 1.6 3.0 3.8 4.7 4.5 5.0 5.4 5.0 5.3 5.5 5.8 5.6 5.5 5.0 5.3 4.0 3.6 4.0 3.2 4.6 4.2 2.9 1.4 1.3 1.2 1.4 1.7 1.4 1.5 1.5 1.3 1.8 1.6 1.2 0.8 0.7 0.4 0.9 0.2 1.7 1.1 1.0 2.1 1.7 1.2 0.8 1.3 1.9 2.7
2.3 1.2 1.4 1.1 1.3 1.5 3.8 3.9 3.9 5.7 6.5 5.9 5.5 6.0 5.9 5.6 5.5 5.1 5.9 6.2 5.3 4.6 4.4 4.2 3.4 3.2 2.2 2.4 2.6 1.8 2.2 2.3 1.2 1.2 1.5 1.3 1.5 1.5 1.0 0.1 -1.0 -1.7 -0.9 0.3 1.1 1.5 0.6 -0.7 0.2 -0.3 0.7 1.1 1.6 1.5
2.7 2.9 5.4 6.1 6.5 4.2 1.2 1.6 3.6 2.9 1.5 4.4 6.3 6.5 6.4 5.6 5.1 5.5 6.5 6.0 6.1 4.6 4.4 4.4 4.2 3.6 3.5 3.5 2.4 2.3 2.6 2.9 1.8 1.1 1.0 1.5 1.6 1.8 1.7 1.0 0.0 -0.5 -0.2 -0.2 -0.5 -1.6 -1.2 -2.6 -2.2 -0.3 0.0 0.1 0.6 1.5
2.4 3.4 5.6 5.4 5.5 2.0 6.4 6.4 5.2 5.5 6.5 6.2 6.5 6.5 5.6 3.3 6.5 6.5 6.5 6.5 5.6 4.5 4.2 4.5 4.7 4.8 4.3 4.7 4.5 2.9 2.3 2.7 2.5 1.9 1.3 1.3 0.5 1.0 1.5 1.8 1.3 0.3 -0.9 -3.3 -3.4 -3.8 -3.3 -3.2 -3.2 -2.1 -0.5 -0.1 1.3 2.0
6.5 3.4 6.3 4.7 1.6 6.2 5.8 6.5 6.5 6.5 6.5 6.5 6.1 4.6 2.6 5.6 6.5 6.5 6.6 6.2 6.0 5.2 4.2 3.7 4.3 4.1 3.8 4.1 3.6 2.9 2.1 1.7 3.1 2.0 0.9 1.0 0.3 -1.1 -1.5 -2.6 -2.5 -1.7 -1.3 -5.0 -5.5 -5.0 -3.0 -2.2 -2.0 -2.0 -1.2 0.2 1.5 2.8
6.5 5.0 4.1 5.4 6.0 5.3 3.7 2.1 4.0 4.5 6.5 6.5 6.3 5.9 6.5 6.5 6.5 6.6 6.5 5.4 5.6 4.4 3.8 3.6 4.8 4.5 3.1 2.0 1.5 0.8 0.1 0.4 1.4 1.4 1.2 1.2 0.8 0.1 -2.7 -3.8 -2.8 -1.1 -0.7 -2.5 -5.7 -6.5 -4.2 -2.3 -1.7 -0.9 0.3 1.7 2.2 2.5
3.7 3.1 6.3 3.3 4.1 4.6 6.1 5.4 6.5 6.5 6.5 6.1 6.1 6.5 6.5 6.5 6.5 6.6 6.0 5.6 4.2 3.6 2.7 2.0 1.8 1.9 1.5 1.1 0.5 0.0 0.2 0.9 0.7 0.6 0.4 -0.8 -1.4 -3.7 -3.8 -5.1 -3.8 -1.6 -4.0 -5.2 -6.9 -5.1 -4.5 -2.2 -0.2 1.0 2.2 2.6 1.2 -1.1
4.7 4.5 4.4 4.5 3.8 4.4 6.0 6.4 6.4 6.3 5.9 5.9 6.4 6.5 6.7 5.6 3.9 4.0 4.4 3.9 3.5 3.3 2.6 1.9 1.0 0.7 0.8 -0.1 -1.3 -1.9 -2.6 -3.6 -2.1 -1.8 -2.7 -5.1 -5.6 -2.9 -4.7 -7.1 -7.2 -6.3 -6.2 -6.7 -3.7 -0.4 0.4 1.0 1.2 0.2 -2.1 -1.4 -0.9 -1.6
3.6 3.4 2.7 2.2 5.0 6.5 5.3 3.8 4.0 4.1 3.8 3.2 3.6 4.8 5.2 4.7 3.6 3.1 3.3 3.0 2.3 0.9 -0.5 -1.3 -2.1 -0.6 -3.1 -4.3 -4.7 -3.6 -5.7 -8.0 -6.5 -4.4 -4.8 -5.2 -3.4 -2.8 -7.4 -7.7 -6.6 -5.8 -6.8 -9.1 -6.9 -6.0 -3.8 -5.6 -4.3 -5.2 -4.7 -4.8 -5.1 -5.7
4.0 4.6 3.5 1.8 3.0 3.3 3.4 4.5 5.1 4.5 4.5 2.5 2.3 2.9 4.5 3.3 2.6 2.6 1.5 -0.1 -0.4 -1.9 -1.4 -3.9 -4.3 -8.4 -5.9 -5.8 -6.3 -5.8 -4.3 -6.5 -7.6 -5.4 -5.4 -5.9 -4.9 -6.5 -6.9 -6.7 -5.2 -5.7 -9.4 -9.6 -9.7 -9.0 -8.2 -7.6 -8.2 -8.0 -6.9 -5.5 -5.2 -5.8
4.7 4.4 4.4 6.6 3.1 0.5 -0.6 0.5 2.7 1.4 3.9 4.7 3.1 0.6 -1.5 -0.0 0.8 2.4 0.7 -1.0 -2.4 -2.3 -5.0 -8.3 -5.3 -3.8 -6.0 -7.1 -8.7 -8.7 -5.2 -6.8 -6.6 -6.5 -6.0 -5.4 -4.8 -3.4 -2.3 -2.3 -3.2 -5.3 -8.7 -8.5 -8.9 -8.4 -7.7 -7.1 -7.5 -7.5 -7.3 -6.9 -6.1 -5.9
-2.5 -3.2 -1.8 -0.8 1.2 1.5 -0.1 -2.3 -2.7 -0.2 2.9 4.3 0.7 -0.2 -0.4 1.2 3.2 2.1 0.6 -2.0 -2.3 -3.8 -4.9 -6.2 -6.9 -8.7 -7.6 -7.0 -6.5 -7.2 -4.7 -3.1 -2.3 -1.9 -0.7 0.2 -0.2 0.0 -0.7 -1.2 -3.1 -6.5 -7.4 -7.8 -8.4 -8.9 -6.8 -5.9 -6.1 -6.5 -6.9 -7.3 -7.3 -6.9
Wind_Speed
26 25 22 22 21 19 17 16 14 12 12 13 13 11 13 20 17 3 2 2 3 3 2 3 2 5 4 3 5 5 4 3 3 3 3 4 3 5 2 4 6 7 6 4 3 2 7 6 4 7 6 2 6 8
24 22 22 22 19 17 17 16 13 11 12 15 13 11 11 14 8 6 4 1 1 5 3 1 3 2 2 5 6 0 4 5 5 4 1 3 2 1 2 3 2 2 6 4 9 6 4 6 5 3 2 3 5 7
21 21 21 19 18 18 16 15 13 13 11 15 14 12 8 11 15 5 3 1 4 4 3 4 3 5 6 3 2 5 2 5 3 2 4 2 3 4 4 5 2 4 4 2 2 4 7 9 7 6 5 7 3 4
20 21 21 19 18 18 16 14 14 15 13 13 15 14 12 13 12 9 4 2 4 4 4 3 3 4 7 5 2 3 7 6 6 3 3 3 3 4 3 3 3 4 5 4 5 9 6 9 8 9 5 4 5 4
21 20 20 19 18 18 15 15 15 15 14 14 15 13 16 19 22 14 5 3 3 4 4 2 3 5 7 5 9 8 8 6 3 2 2 3 3 4 1 2 3 5 7 4 6 9 4 7 4 2 6 7 6 7
21 20 20 19 19 16 16 17 16 14 15 14 13 11 11 9 5 4 4 4 8 3 4 2 3 5 6 8 11 8 4 4 3 3 2 1 1 3 4 4 8 4 5 4 6 1 5 4 5 3 4 6 6 8
22 21 19 20 18 16 17 17 15 15 16 17 17 16 16 18 7 5 4 3 10 2 3 3 3 4 4 4 3 3 4 3 3 2 1 2 1 3 3 3 4 6 7 6 5 4 4 4 4 4 6 8 12 12
21 20 19 19 16 15 19 16 14 14 15 17 19 22 24 25 15 4 4 12 8 5 4 3 2 3 6 2 2 3 2 2 4 2 1 2 2 2 3 4 7 7 7 5 4 4 1 2 6 8 10 13 14 12
20 19 19 17 15 18 19 13 11 12 11 11 11 10 6 6 3 2 15 11 6 4 3 2 4 3 3 2 1 3 2 2 2 1 0 2 1 3 3 9 9 8 5 7 3 4 7 11 12 12 14 13 14 11
23 20 17 16 15 16 15 11 8 9 10 9 6 4 3 2 9 7 5 4 5 4 4 3 1 1 2 1 2 2 2 1 1 2 1 2 2 3 8 7 8 9 7 3 3 6 10 12 12 13 12 9 8 5
25 21 18 16 14 13 11 9 7 6 11 4 3 2 2 7 3 4 3 4 3 2 2 1 1 2 2 2 2 1 1 1 2 2 2 0 1 4 8 9 9 11 13 15 15 16 14 14 12 9 6 5 3 2
28 27 24 22 18 13 11 8 9 5 1 3 4 4 3 4 3 6 2 1 3 2 2 1 0 1 1 2 3 0 2 1 3 1 1 1 2 5 5 8 9 12 15 16 16 14 12 10 6 5 3 3 1 3
26 26 25 24 22 20 20 18 19 13 3 3 4 4 3 3 5 4 4 1 2 1 0 1 2 1 2 3 3 2 2 2 1 1 1 2 2 5 6 6 9 8 8 11 11 7 5 3 2 3 3 3 1 2
22 24 27 25 20 17 14 11 10 6 5 4 3 3 2 2 2 1 2 2 1 1 2 2 2 2 1 3 1 2 1 1 2 0 1 1 3 4 3 4 6 5 4 4 4 4 4 3 3 2 1 1 2 3
21 23 23 25 19 16 11 11 10 4 3 3 3 3 2 2 3 2 1 2 1 1 1 2 2 2 2 2 1 2 2 1 2 3 1 1 4 3 4 5 5 4 3 3 2 3 3 4 4 4 4 3 3 4
7 10 12 24 17 16 8 7 4 2 3 3 4 3 2 2 2 1 2 2 0 1 1 2 2 2 0 2 2 2 4 4 3 3 2 3 3 4 5 5 3 1 2 3 3 2 2 2 2 4 5 4 3 3
14 4 20 20 14 10 14 4 4 5 3 3 2 2 2 3 3 2 1 1 1 1 2 2 3 3 2 2 1 1 3 3 3 2 2 4 5 5 4 3 3 1 0 1 1 2 3 4 3 4 7 7 7 7
4 8 19 20 9 5 3 4 3 4 5 3 2 2 2 2 2 2 1 2 2 1 1 2 3 2 3 3 2 3 2 1 1 2 1 1 2 3 2 2 2 2 4 5 5 6 5 6 6 5 7 8 7 6
6 15 21 20 7 3 3 4 4 3 3 1 1 2 2 2 2 1 1 2 1 1 3 2 3 2 2 2 2 1 2 2 2 1 2 4 4 4 5 5 5 6 6 6 7 5 5 6 5 6 7 8 8 8
12 20 25 16 9 3 4 3 2 4 2 0 2 2 2 1 2 2 2 2 2 2 3 1 2 2 3 2 2 2 1 2 3 3 2 3 4 7 7 5 4 4 5 7 6 7 7 6 7 8 8 8 9 9
10 9 14 10 4 5 3 3 3 2 2 2 0 2 1 2 2 2 2 1 3 1 1 1 1 2 1 2 2 2 3 2 2 2 3 3 3 4 4 5 5 5 6 5 4 7 8 6 7 7 7 7 7 8
4 13 4 5 4 4 4 3 2 1 2 1 1 1 2 1 1 1 2 2 1 1 1 2 1 1 4 5 6 7 5 7 6 6 8 5 3 3 6 6 5 6 5 5 5 4 4 5 6 7 7 8 8 8
4 4 3 5 5 5 2 2 3 2 1 1 1 2 1 1 1 2 1 1 1 2 1 2 5 8 10 9 9 10 9 8 6 6 5 5 6 6 6 6 5 4 4 5 5 4 5 7 7 7 7 8 8 8
3 4 4 4 5 1 2 4 2 2 3 2 1 0 1 2 1 2 1 1 1 1 2 4 4 6 6 9 7 7 6 4 5 6 5 4 5 6 5 5 4 4 5 4 4 4 5 5 6 7 7 8 8 8
6 5 3 4 3 5 5 5 4 3 1 2 2 2 2 2 2 1 1 1 2 3 3 3 5 5 5 5 5 5 7 4 4 6 6 5 3 3 3 3 3 4 4 4 5 6 6 4 4 5 8 7 9 12
4 2 2 0 2 2 2 1 1 3 2 1 3 0 1 2 2 2 1 3 2 3 3 3 4 5 6 5 4 4 4 4 2 4 4 5 4 3 2 2 3 3 4 1 2 4 6 6 6 8 8 9 10 8
3 3 2 1 1 1 2 1 1 1 2 3 2 2 1 2 1 2 1 3 2 3 5 5 4 5 6 5 4 4 3 3 4 6 5 5 5 4 3 2 2 3 5 4 2 2 5 7 7 7 8 7 5 4
3 2 0 2 1 2 2 1 2 2 1 2 2 2 1 2 2 2 3 3 4 5 6 6 7 6 6 5 4 3 4 5 6 6 4 3 2 1 2 2 6 8 7 6 3 4 3 5 6 7 7 5 3 3
1 2 2 2 2 2 2 2 2 2 3 1 2 2 2 2 2 3 3 3 3 4 4 4 4 4 5 5 5 4 4 3 4 4 2 3 3 3 2 2 3 4 5 4 9 8 8 5 5 3 4 3 3 3
3 0 2 1 2 0 0 1 1 1 2 2 3 3 2 2 3 3 2 3 4 4 2 2 2 2 2 3 1 3 3 2 2 3 3 3 3 3 3 3 4 4 4 3 4 5 8 4 5 4 4 4 4 4
2 2 2 1 2 2 2 2 1 1 2 3 3 3 3 2 2 3 3 3 3 2 3 3 4 2 4 3 2 1 2 2 1 2 2 3 3 3 3 2 5 6 2 3 3 3 3 3 3 3 5 5 6 4
3 2 2 2 3 3 4 3 2 2 3 2 2 3 3 3 2 2 2 2 3 4 1 1 2 2 2 2 1 2 3 3 3 3 4 3 3 6 8 8 6 3 2 3 3 3 3 3 3 3 3 5 5 5
3 3 3 3 4 5 3 3 5 3 3 2 2 2 1 3 3 2 1 2 3 3 2 3 3 3 4 4 3 2 3 5 10 9 8 5 6 7 7 5 4 2 2 3 3 3 3 3 2 3 4 4 5 5
Wind_Direction
121 121 125 134 134 134 134 132 131 126 112 92 75 78 126 161 170 129 160 123 127 98 20 28 49 129 122 112 135 183 72 338 40 73 123 203 145 218 140 184 179 170 155 201 109 64 279 165 60 163 218 250 190 184
120 125 127 128 127 126 125 125 123 114 94 86 74 73 108 147 158 63 71 306 177 81 141 51 76 51 45 162 128 30 159 161 170 90 103 107 147 145 134 237 64 234 190 183 185 215 231 231 218 253 184 215 223 193
122 123 119 117 122 121 119 113 108 106 88 81 71 59 82 124 152 124 120 1 59 87 28 56 1 332 31 20 163 120 301 153 130 116 147 148 151 131 164 237 178 245 160 207 86 259 233 232 261 233 217 227 221 226
115 113 117 118 116 113 108 105 101 96 81 75 71 68 74 95 104 87 86 341 74 101 109 282 331 25 331 355 95 89 125 75 97 76 104 138 146 185 206 198 166 202 147 191 261 281 277 263 234 244 229 207 210 196
110 111 113 111 109 105 107 99 91 86 82 65 66 73 79 81 92 93 93 35 44 118 151 235 319 3 349 37 66 69 103 108 118 84 105 203 139 119 81 75 259 190 195 167 231 238 205 249 284 209 202 219 196 150
109 109 108 107 103 104 101 93 88 82 71 66 60 66 77 77 108 66 47 12 14 40 97 107 295 10 351 32 54 49 45 75 89 130 193 221 297 106 148 201 256 212 231 219 256 287 217 276 298 251 209 146 124 107
108 107 107 105 105 107 100 90 84 79 67 62 72 79 73 71 64 72 130 285 340 7 81 60 355 344 342 26 39 21 22 58 87 101 87 139 104 100 141 205 260 247 251 261 237 160 277 215 267 164 125 101 100 99
104 107 108 108 110 111 93 86 82 76 72 70 78 80 82 91 111 45 4 360 341 90 64 108 281 19 0 24 33 350 28 33 25 103 83 106 65 81 242 290 319 325 314 306 284 222 315 74 87 86 103 107 84 67
87 98 103 108 109 101 94 85 83 81 68 63 77 67 56 37 50 298 321 327 34 87 111 80 131 217 3 52 41 25 27 58 316 112 213 112 123 223 359 328 318 313 300 297 17 48 64 74 78 76 82 74 79 84
68 74 87 98 102 101 105 94 85 74 46 61 42 44 33 334 320 319 5 28 19 356 38 86 84 109 28 6 32 61 0 94 233 248 73 123 242 63 14 1 348 336 334 49 76 79 89 84 85 83 77 70 93 136
62 69 77 89 103 117 109 101 62 10 40 39 54 84 240 323 46 32 50 63 15 51 22 76 144 126 336 105 137 73 131 359 223 252 198 326 309 17 4 31 29 43 55 59 71 72 76 88 92 92 98 151 156 143
58 58 62 67 78 97 91 52 22 52 61 120 125 94 46 36 49 79 50 11 57 193 3 106 56 54 55 99 101 294 133 84 243 185 71 260 54 38 34 47 54 66 72 73 70 75 73 76 98 122 130 195 112 47
60 58 56 56 58 63 65 63 68 97 120 59 50 58 52 330 72 143 144 230 145 177 346 64 62 73 25 43 67 95 151 220 62 169 180 50 64 35 29 55 56 46 66 86 97 112 131 122 38 36 45 35 19 334
59 54 47 40 45 54 59 55 37 34 54 55 46 63 39 82 57 83 62 78 81 105 86 80 67 65 0 57 65 139 75 71 213 167 15 48 79 74 55 52 82 60 53 87 80 58 58 48 21 0 357 321 335 338
61 49 38 19 27 34 53 63 62 42 68 66 27 82 63 97 54 52 63 92 3 116 95 81 62 69 38 90 42 96 70 59 135 191 105 105 130 126 85 66 75 58 15 7 7 24 359 354 6 347 349 330 314 297
44 45 14 1 10 24 37 55 37 69 59 77 53 89 76 83 89 68 41 74 339 63 51 48 86 65 33 134 106 183 149 199 178 154 132 156 149 145 169 180 216 337 311 319 330 355 351 324 297 312 316 312 310 266
57 42 338 353 6 23 29 67 42 47 78 56 41 29 67 67 77 80 85 60 23 64 104 112 105 176 110 66 104 87 164 152 124 122 150 174 176 191 188 221 277 298 72 319 339 11 7 360 4 15 1 341 334 321
51 320 353 1 14 31 37 38 77 71 61 35 66 25 40 29 76 57 69 23 77 97 110 184 130 103 156 148 245 211 193 205 98 127 139 139 118 130 144 125 103 55 32 29 30 26 24 25 28 8 351 343 331 329
35 14 4 6 24 80 60 23 48 77 48 59 71 38 54 54 20 23 77 18 83 132 105 47 77 165 221 218 172 172 159 183 184 134 75 64 75 77 67 55 52 50 50 48 41 36 24 22 17 4 355 348 338 335
10 14 358 10 24 69 63 15 58 86 69 87 49 43 74 64 316 338 36 31 36 66 42 76 205 226 174 240 201 182 172 143 117 85 60 48 45 74 59 61 52 45 57 51 38 30 13 10 9 1 353 339 333 331
19 349 357 16 33 49 85 1 61 74 115 77 55 52 53 21 29 7 347 352 46 53 0 276 274 284 80 58 36 72 61 93 91 133 143 107 65 74 69 51 49 52 53 30 19 20 17 3 349 343 336 327 326 317
343 355 24 13 49 26 67 2 61 342 61 106 63 89 98 91 91 14 314 25 86 288 5 342 10 118 70 52 45 38 51 72 67 71 55 72 63 50 50 40 44 46 47 28 16 22 352 347 342 337 328 323 321 316
8 29 31 25 60 40 301 339 61 21 99 196 70 87 123 109 40 1 9 335 69 48 3 44 62 83 97 89 75 54 44 64 69 62 63 72 78 76 73 64 50 47 27 16 354 355 346 334 335 330 321 319 319 317
17 56 41 37 36 61 348 16 359 49 33 52 94 64 148 131 93 73 220 230 87 36 35 85 100 99 87 74 63 51 33 54 72 54 30 67 79 67 70 77 71 57 30 352 345 333 331 322 320 322 319 318 319 321
61 338 25 31 19 41 29 3 359 30 292 272 106 290 208 68 97 182 248 38 35 25 21 62 84 85 100 102 95 67 31 26 81 85 44 52 69 58 54 49 49 56 19 3 351 335 324 317 316 315 319 317 323 327
66 313 58 4 306 45 207 24 256 226 190 274 236 98 45 111 136 182 70 13 42 23 13 25 87 90 65 55 80 53 17 348 60 92 71 65 70 88 73 38 346 321 6 26 312 309 321 319 317 316 317 320 322 335
37 326 313 275 312 226 333 295 247 159 232 228 192 164 181 207 142 71 81 15 50 27 29 18 46 81 99 88 65 31 13 26 70 101 108 94 85 83 117 115 311 285 326 328 319 263 286 307 308 307 307 312 311 336
204 155 99 271 295 217 254 241 254 262 316 15 99 62 59 37 77 27 23 36 59 66 61 52 52 69 79 72 45 36 55 81 86 85 84 59 65 57 52 346 319 318 322 314 284 288 273 281 292 298 306 309 315 333
11 326 60 343 324 17 38 4 351 6 336 329 91 86 85 59 7 349 7 13 40 66 72 75 54 60 70 63 50 40 40 66 81 50 27 299 334 309 331 330 317 319 322 317 314 314 306 299 311 316 321 319 311 337
300 55 75 10 86 298 280 189 269 283 53 71 94 94 79 56 8 348 22 42 62 71 50 50 7 71 106 90 53 10 6 37 111 141 178 238 238 274 309 308 313 309 321 330 324 322 335 1 349 7 8 7 5 2
293 9 17 78 191 262 265 277 307 10 101 79 42 80 100 133 29 23 44 33 64 65 71 44 37 26 88 68 106 76 334 290 295 280 253 266 264 277 286 279 303 310 330 348 348 340 336 353 9 1 7 4 354 1
14 34 356 333 305 316 8 36 26 18 360 98 74 80 37 59 40 329 344 55 43 47 3 118 99 281 226 236 242 234 213 281 300 286 301 296 267 286 299 309 327 343 6 0 352 349 7 5 347 356 348 343 346 353
15 33 36 25 344 349 348 61 24 8 31 56 22 104 100 120 149 242 354 56 145 173 207 224 235 239 228 213 210 246 269 308 310 303 293 300 308 305 317 324 333 352 9 356 348 352 351 350 342 338 340 344 343 347